User: anonymous   Login
Location: Caltech
(34.1382°N, 118.1253°W)
Time: 02:39:25
(UTC-07:00)
Language:

Oscar 19 - Orbit

View from above orbital plane
View from above orbital plane
View from above satellite
View from above satellite

Ground track
Ground track

The orbit data is extracted from the following two-line orbital elements,

1 20442U 90005G   16208.38118235 -.00000002  00000-0  15213-4 0  9993
2 20442  98.5441 142.7800 0012521  35.2760 324.9250 14.32823472384962
Epoch (UTC): 26 July 2016 09:08:54
Eccentricity: 0.0012521
inclination: 98.5441°
perigee height: 773 km
apogee height: 791 km
right ascension of ascending node: 142.7800°
argument of perigee: 35.2760°
revolutions per day: 14.32823472
mean anomaly at epoch: 324.9250°
orbit number at epoch: 38496

The dashed part of the orbit path shows where the satellite is in the earth's shadow,  

DLR